Location: *
(35.2348°S, 91.3916°E)
Time: 12:10:27
(UTC+00:00)

OAO 2 Rocket - Pass Details

Date: 23 October 2019
Orbit: 676 x 746 km, 35.0° (Epoch: 14 November)

Event Time Altitude Azimuth Distance (km) Brightness Sun altitude
Exits shadow 21:15:31 42° 269° (W) 1,019 3.7 -20.7°
Maximum altitude 21:17:18 88° 352° (N) 715 3.2 -20.4°
Drops below altitude 10° 21:22:24 10° 86° (E) 2,158 6.6 -19.5°
Sets 21:24:46 0° 85° (E) 3,064 7.5 -19.0°
